Location: Unspecified
(33.9239°N, 118.0544°W)
Time: 15:11:16
(UTC-07:00)

Resurs 1-4 Rocket - Visible Passes

Search period start: 27 March 2015 00:00
Search period end: 06 April 2015 00:00
Orbit: 800 x 815 km, 98.4° (Epoch: 26 March)

Date Brightness Start Highest point End Pass type
(mag) Time Alt. Az. Time Alt. Az. Time Alt. Az.
27 Mar 4.6 03:17:30 10° ENE 03:20:01 15° E 03:20:01 15° E visible
27 Mar 2.2 04:55:34 10° N 05:00:39 51° WNW 05:01:07 50° W visible
28 Mar 1.9 04:30:58 10° NNE 04:36:15 90° SSW 04:36:29 82° SSW visible
29 Mar 2.7 04:06:38 10° NNE 04:11:45 51° E 04:11:52 51° ESE visible
29 Mar 3.6 05:47:54 10° NNW 05:51:16 17° WNW 05:52:58 14° W visible
30 Mar 3.7 03:42:40 10° NE 03:47:09 29° E 03:47:14 29° E visible
30 Mar 3.0 05:22:30 10° NNW 05:26:59 28° WNW 05:28:20 25° W visible
31 Mar 4.5 03:19:19 10° NE 03:22:26 16° E 03:22:36 16° E visible
31 Mar 2.3 04:57:35 10° N 05:02:38 49° WNW 05:03:42 42° WSW visible
01 Apr 1.9 04:32:57 10° NNE 04:38:14 85° WNW 04:39:04 64° SSW visible
02 Apr 2.6 04:08:36 10° NNE 04:13:45 54° E 04:14:26 50° SE visible
02 Apr 3.7 05:50:03 10° NNW 05:53:14 16° WNW 05:55:32 12° W visible
03 Apr 3.5 03:44:35 10° NE 03:49:09 31° E 03:49:48 30° ESE visible
03 Apr 3.1 05:24:33 10° NNW 05:28:57 27° WNW 05:30:54 21° WSW visible
04 Apr 4.3 03:21:08 10° NE 03:24:27 17° E 03:25:10 17° ESE visible
04 Apr 2.4 04:59:35 10° N 05:04:36 46° WNW 05:06:16 34° WSW visible
05 Apr 1.9 04:34:57 10° N 04:40:12 81° WNW 04:41:37 50° SSW visible
